Time,TemperatureF,DewpointF,PressureIn,WindDirection,WindDirectionDegrees,WindSpeedMPH,WindSpeedGustMPH,Humidity,HourlyPrecipIn,Conditions,Clouds,dailyrainin,SoftwareType,DateUTC
2013-07-02 00:00:00,63.4,49.7,30.10,NE,51,0.0,0.0,61,0.00,OVC,OVC,0.00,WeatherDisplay:10.37,2013-07-02 05:00:00,
2013-07-02 00:05:00,63.2,50.0,30.10,NE,51,0.0,0.0,62,0.00,OVC,OVC,0.00,WeatherDisplay:10.37,2013-07-02 05:05:00,
2013-07-02 00:11:00,63.0,49.8,30.10,NE,51,0.0,0.0,62,0.00,OVC,OVC,0.00,WeatherDisplay:10.37,2013-07-02 05:11:00,
2013-07-02 00:16:00,62.8,50.0,30.10,NE,51,0.0,0.0,63,0.00,OVC,OVC,0.00,WeatherDisplay:10.37,2013-07-02 05:16:00,
2013-07-02 00:21:00,62.6,49.8,30.10,NE,51,0.0,0.0,63,0.00,OVC,OVC,0.00,WeatherDisplay:10.37,2013-07-02 05:21:00,
2013-07-02 00:26:00,62.4,50.1,30.11,NE,51,0.0,0.0,64,0.00,OVC,OVC,0.00,WeatherDisplay:10.37,2013-07-02 05:26:00,
2013-07-02 00:31:00,62.2,49.9,30.11,NE,51,0.0,0.0,64,0.00,OVC,OVC,0.00,WeatherDisplay:10.37,2013-07-02 05:31:00,
2013-07-02 00:36:00,61.9,49.6,30.11,NE,51,0.0,0.0,64,0.00,OVC,OVC,0.00,WeatherDisplay:10.37,2013-07-02 05:36:00,
2013-07-02 00:41:00,61.5,49.2,30.11,NE,51,0.0,0.0,64,0.00,OVC,OVC,0.00,WeatherDisplay:10.37,2013-07-02 05:41:00,
2013-07-02 00:47:00,61.2,49.7,30.11,NE,51,0.0,0.0,66,0.00,OVC,OVC,0.00,WeatherDisplay:10.37,2013-07-02 05:47:00,
2013-07-02 00:52:00,60.9,50.3,30.11,NE,51,0.0,0.0,68,0.00,OVC,OVC,0.00,WeatherDisplay:10.37,2013-07-02 05:52:00,
2013-07-02 00:57:00,60.8,50.6,30.10,NE,51,0.0,0.0,69,0.00,OVC,OVC,0.00,WeatherDisplay:10.37,2013-07-02 05:57:00,
2013-07-02 01:02:00,60.7,50.5,30.10,NE,51,0.0,0.0,69,0.00,OVC,OVC,0.00,WeatherDisplay:10.37,2013-07-02 06:02:00,
2013-07-02 01:07:00,60.5,50.7,30.11,NE,51,0.0,0.0,70,0.00,OVC,OVC,0.00,WeatherDisplay:10.37,2013-07-02 06:07:00,
2013-07-02 01:13:00,60.5,50.7,30.10,NE,51,0.0,0.0,70,0.00,OVC,OVC,0.00,WeatherDisplay:10.37,2013-07-02 06:13:00,
2013-07-02 01:18:00,60.5,50.7,30.10,NE,51,0.0,0.0,70,0.00,OVC,OVC,0.00,WeatherDisplay:10.37,2013-07-02 06:18:00,
2013-07-02 01:23:00,60.7,50.9,30.10,NE,51,0.0,0.0,70,0.00,OVC,OVC,0.00,WeatherDisplay:10.37,2013-07-02 06:23:00,
2013-07-02 01:28:00,60.7,50.9,30.10,NE,51,0.0,0.0,70,0.00,OVC,OVC,0.00,WeatherDisplay:10.37,2013-07-02 06:28:00,
2013-07-02 01:33:00,60.5,50.7,30.10,NE,51,0.0,0.0,70,0.00,OVC,OVC,0.00,WeatherDisplay:10.37,2013-07-02 06:33:00,
2013-07-02 01:38:00,60.4,50.6,30.10,NE,51,0.0,0.0,70,0.00,OVC,OVC,0.00,WeatherDisplay:10.37,2013-07-02 06:38:00,
2013-07-02 01:43:00,60.4,50.6,30.10,NE,51,0.0,0.0,70,0.00,OVC,OVC,0.00,WeatherDisplay:10.37,2013-07-02 06:43:00,
2013-07-02 01:48:00,60.3,50.9,30.10,NE,51,0.0,0.0,71,0.00,OVC,OVC,0.00,WeatherDisplay:10.37,2013-07-02 06:48:00,
2013-07-02 01:53:00,60.2,50.4,30.10,NE,51,0.0,0.0,70,0.00,OVC,OVC,0.00,WeatherDisplay:10.37,2013-07-02 06:53:00,
2013-07-02 01:59:00,60.1,50.3,30.10,NE,51,0.0,0.0,70,0.00,OVC,OVC,0.00,WeatherDisplay:10.37,2013-07-02 06:59:00,
2013-07-02 02:04:00,60.0,50.6,30.10,NE,51,0.0,0.0,71,0.00,OVC,OVC,0.00,WeatherDisplay:10.37,2013-07-02 07:04:00,
2013-07-02 02:09:00,60.0,50.6,30.10,NE,51,0.0,0.0,71,0.00,OVC,OVC,0.00,WeatherDisplay:10.37,2013-07-02 07:09:00,
2013-07-02 02:14:00,59.9,50.8,30.10,NE,51,0.0,0.0,72,0.00,OVC,OVC,0.00,WeatherDisplay:10.37,2013-07-02 07:14:00,
2013-07-02 02:19:00,59.8,50.8,30.10,NE,51,0.0,0.0,72,0.00,OVC,OVC,0.00,WeatherDisplay:10.37,2013-07-02 07:19:00,
2013-07-02 02:24:00,59.6,50.6,30.10,NE,51,0.0,0.0,72,0.00,OVC,OVC,0.00,WeatherDisplay:10.37,2013-07-02 07:24:00,
2013-07-02 02:29:00,59.6,50.6,30.10,NE,51,0.0,0.0,72,0.00,OVC,OVC,0.00,WeatherDisplay:10.37,2013-07-02 07:29:00,
2013-07-02 02:34:00,59.6,50.6,30.10,NE,51,0.0,0.0,72,0.00,OVC,OVC,0.00,WeatherDisplay:10.37,2013-07-02 07:34:00,
2013-07-02 02:40:00,59.9,50.8,30.10,NE,51,0.0,0.0,72,0.00,OVC,OVC,0.00,WeatherDisplay:10.37,2013-07-02 07:40:00,
2013-07-02 02:45:00,60.0,50.9,30.10,NE,51,0.0,0.0,72,0.00,OVC,OVC,0.00,WeatherDisplay:10.37,2013-07-02 07:45:00,
2013-07-02 02:50:00,60.0,50.9,30.10,NE,51,0.0,0.0,72,0.00,OVC,OVC,0.00,WeatherDisplay:10.37,2013-07-02 07:50:00,
2013-07-02 02:55:00,60.1,51.0,30.10,NE,51,0.0,0.0,72,0.00,OVC,OVC,0.00,WeatherDisplay:10.37,2013-07-02 07:55:00,
2013-07-02 03:00:00,60.0,50.9,30.10,NE,51,0.0,0.0,72,0.00,OVC,OVC,0.00,WeatherDisplay:10.37,2013-07-02 08:00:00,
2013-07-02 03:06:00,59.8,50.8,30.10,NE,51,0.0,0.0,72,0.00,OVC,OVC,0.00,WeatherDisplay:10.37,2013-07-02 08:06:00,
2013-07-02 03:11:00,59.6,50.6,30.10,NE,51,0.0,0.0,72,0.00,OVC,OVC,0.00,WeatherDisplay:10.37,2013-07-02 08:11:00,
2013-07-02 03:16:00,59.3,50.6,30.09,NE,51,0.0,0.0,73,0.00,OVC,OVC,0.00,WeatherDisplay:10.37,2013-07-02 08:16:00,
2013-07-02 03:21:00,59.0,50.4,30.09,NE,51,0.0,0.0,73,0.00,OVC,OVC,0.00,WeatherDisplay:10.37,2013-07-02 08:21:00,
2013-07-02 03:26:00,59.0,50.7,30.09,NE,51,0.0,0.0,74,0.00,OVC,OVC,0.00,WeatherDisplay:10.37,2013-07-02 08:26:00,
2013-07-02 03:32:00,58.6,50.3,30.09,NE,51,0.0,0.0,74,0.00,OVC,OVC,0.00,WeatherDisplay:10.37,2013-07-02 08:32:00,
2013-07-02 03:37:00,58.3,50.4,30.09,NE,51,0.0,0.0,75,0.00,OVC,OVC,0.00,WeatherDisplay:10.37,2013-07-02 08:37:00,
2013-07-02 03:42:00,58.1,50.2,30.09,NE,51,0.0,0.0,75,0.00,OVC,OVC,0.00,WeatherDisplay:10.37,2013-07-02 08:42:00,
2013-07-02 03:47:00,57.9,50.4,30.09,NE,51,0.0,0.0,76,0.00,OVC,OVC,0.00,WeatherDisplay:10.37,2013-07-02 08:47:00,
2013-07-02 03:52:00,57.8,50.3,30.09,NE,51,0.0,0.0,76,0.00,OVC,OVC,0.00,WeatherDisplay:10.37,2013-07-02 08:52:00,
2013-07-02 03:57:00,57.6,50.1,30.09,NE,51,0.0,0.0,76,0.00,OVC,OVC,0.00,WeatherDisplay:10.37,2013-07-02 08:57:00,
2013-07-02 04:02:00,57.6,50.4,30.09,NE,51,0.0,0.0,77,0.00,OVC,OVC,0.00,WeatherDisplay:10.37,2013-07-02 09:02:00,
2013-07-02 04:08:00,57.6,50.8,30.10,NE,51,0.0,0.0,78,0.00,OVC,OVC,0.00,WeatherDisplay:10.37,2013-07-02 09:08:00,
2013-07-02 04:13:00,57.7,50.9,30.09,NE,51,0.0,0.0,78,0.00,OVC,OVC,0.00,WeatherDisplay:10.37,2013-07-02 09:13:00,
2013-07-02 04:18:00,57.9,51.1,30.09,NE,51,0.0,0.0,78,0.00,OVC,OVC,0.00,WeatherDisplay:10.37,2013-07-02 09:18:00,
2013-07-02 04:23:00,58.0,50.8,30.09,NE,51,0.0,0.0,77,0.00,OVC,OVC,0.00,WeatherDisplay:10.37,2013-07-02 09:23:00,
2013-07-02 04:28:00,58.1,50.9,30.10,NE,51,0.0,0.0,77,0.00,OVC,OVC,0.00,WeatherDisplay:10.37,2013-07-02 09:28:00,
2013-07-02 04:34:00,58.1,50.9,30.10,NE,51,0.0,0.0,77,0.00,OVC,OVC,0.00,WeatherDisplay:10.37,2013-07-02 09:34:00,
2013-07-02 04:39:00,58.1,50.9,30.10,NE,51,0.0,0.0,77,0.00,OVC,OVC,0.00,WeatherDisplay:10.37,2013-07-02 09:39:00,
2013-07-02 04:44:00,58.0,50.5,30.09,NE,51,0.0,0.0,76,0.00,OVC,OVC,0.00,WeatherDisplay:10.37,2013-07-02 09:44:00,
2013-07-02 04:49:00,57.9,50.4,30.09,NE,51,0.0,0.0,76,0.00,OVC,OVC,0.00,WeatherDisplay:10.37,2013-07-02 09:49:00,
2013-07-02 04:54:00,57.8,50.6,30.09,NE,51,0.0,0.0,77,0.00,OVC,OVC,0.00,WeatherDisplay:10.37,2013-07-02 09:54:00,
2013-07-02 04:59:00,57.8,50.6,30.10,NE,51,0.0,0.0,77,0.00,OVC,OVC,0.00,WeatherDisplay:10.37,2013-07-02 09:59:00,
2013-07-02 05:04:00,57.6,50.1,30.09,NE,51,0.0,0.0,76,0.00,OVC,OVC,0.00,WeatherDisplay:10.37,2013-07-02 10:04:00,
2013-07-02 05:09:00,57.5,50.3,30.09,NE,51,0.0,0.0,77,0.00,OVC,OVC,0.00,WeatherDisplay:10.37,2013-07-02 10:09:00,
2013-07-02 05:14:00,57.4,50.2,30.10,NE,51,0.0,0.0,77,0.00,OVC,OVC,0.00,WeatherDisplay:10.37,2013-07-02 10:14:00,
2013-07-02 05:19:00,57.2,50.1,30.10,NE,51,0.0,0.0,77,0.00,OVC,OVC,0.00,WeatherDisplay:10.37,2013-07-02 10:19:00,
2013-07-02 05:25:00,57.0,49.9,30.10,NE,51,0.0,0.0,77,0.00,OVC,OVC,0.00,WeatherDisplay:10.37,2013-07-02 10:25:00,
2013-07-02 05:30:00,56.8,50.0,30.10,NE,51,0.0,0.0,78,0.00,OVC,OVC,0.00,WeatherDisplay:10.37,2013-07-02 10:30:00,
2013-07-02 05:35:00,56.7,49.9,30.10,NE,51,0.0,0.0,78,0.00,OVC,OVC,0.00,WeatherDisplay:10.37,2013-07-02 10:35:00,
2013-07-02 05:40:00,56.6,49.8,30.10,NE,51,0.0,0.0,78,0.00,OVC,OVC,0.00,WeatherDisplay:10.37,2013-07-02 10:40:00,
2013-07-02 05:45:00,56.5,49.7,30.10,NE,51,0.0,0.0,78,0.00,OVC,OVC,0.00,WeatherDisplay:10.37,2013-07-02 10:45:00,
2013-07-02 05:51:00,56.4,50.0,30.10,NE,51,0.0,0.0,79,0.00,OVC,OVC,0.00,WeatherDisplay:10.37,2013-07-02 10:51:00,
2013-07-02 05:56:00,56.3,49.9,30.10,NE,51,0.0,0.0,79,0.00,OVC,OVC,0.00,WeatherDisplay:10.37,2013-07-02 10:56:00,
2013-07-02 06:01:00,56.2,49.8,30.10,NE,51,0.0,0.0,79,0.00,OVC,OVC,0.00,WeatherDisplay:10.37,2013-07-02 11:01:00,
2013-07-02 06:06:00,56.3,49.9,30.10,NE,51,0.0,0.0,79,0.00,OVC,OVC,0.00,WeatherDisplay:10.37,2013-07-02 11:06:00,
2013-07-02 06:11:00,56.3,50.2,30.10,NE,51,0.0,0.0,80,0.00,OVC,OVC,0.00,WeatherDisplay:10.37,2013-07-02 11:11:00,
2013-07-02 06:16:00,56.4,50.3,30.10,NE,51,0.0,0.0,80,0.00,OVC,OVC,0.00,WeatherDisplay:10.37,2013-07-02 11:16:00,
2013-07-02 06:22:00,56.6,50.5,30.11,NE,51,0.0,0.0,80,0.00,OVC,OVC,0.00,WeatherDisplay:10.37,2013-07-02 11:22:00,
2013-07-02 06:27:00,56.7,50.6,30.11,NE,51,1.0,1.0,80,0.00,OVC,OVC,0.00,WeatherDisplay:10.37,2013-07-02 11:27:00,
2013-07-02 06:32:00,56.9,50.5,30.12,NE,51,0.0,0.0,79,0.00,OVC,OVC,0.00,WeatherDisplay:10.37,2013-07-02 11:32:00,
2013-07-02 06:37:00,57.2,50.7,30.12,NE,51,0.0,0.0,79,0.00,OVC,OVC,0.00,WeatherDisplay:10.37,2013-07-02 11:37:00,
2013-07-02 06:42:00,57.6,50.8,30.12,NE,51,0.0,0.0,78,0.00,OVC,OVC,0.00,WeatherDisplay:10.37,2013-07-02 11:42:00,
2013-07-02 06:47:00,58.1,51.3,30.12,NE,51,0.0,0.0,78,0.00,OVC,OVC,0.00,WeatherDisplay:10.37,2013-07-02 11:47:00,
2013-07-02 06:53:00,58.9,51.7,30.12,NE,51,0.0,0.0,77,0.00,OVC,OVC,0.00,WeatherDisplay:10.37,2013-07-02 11:53:00,
2013-07-02 06:58:00,59.4,51.5,30.12,NE,51,2.3,2.3,75,0.00,OVC,OVC,0.00,WeatherDisplay:10.37,2013-07-02 11:58:00,
2013-07-02 07:03:00,60.1,51.8,30.12,NE,51,0.0,0.0,74,0.00,OVC,OVC,0.00,WeatherDisplay:10.37,2013-07-02 12:03:00,
2013-07-02 07:08:00,60.7,51.6,30.12,NE,51,0.0,0.0,72,0.00,OVC,OVC,0.00,WeatherDisplay:10.37,2013-07-02 12:08:00,
2013-07-02 07:13:00,61.2,51.7,30.12,NE,51,0.0,0.0,71,0.00,OVC,OVC,0.00,WeatherDisplay:10.37,2013-07-02 12:13:00,
2013-07-02 07:18:00,61.6,52.1,30.12,NE,51,0.0,0.0,71,0.00,OVC,OVC,0.00,WeatherDisplay:10.37,2013-07-02 12:18:00,
2013-07-02 07:23:00,62.0,52.1,30.12,NE,51,1.2,1.2,70,0.00,OVC,OVC,0.00,WeatherDisplay:10.37,2013-07-02 12:23:00,
2013-07-02 07:28:00,62.3,52.0,30.12,NE,51,0.0,0.0,69,0.00,OVC,OVC,0.00,WeatherDisplay:10.37,2013-07-02 12:28:00,
2013-07-02 07:34:00,62.9,52.2,30.12,NE,51,1.2,1.2,68,0.00,OVC,OVC,0.00,WeatherDisplay:10.37,2013-07-02 12:34:00,
2013-07-02 07:39:00,63.5,52.3,30.12,NE,51,2.3,0.0,67,0.00,OVC,OVC,0.00,WeatherDisplay:10.37,2013-07-02 12:39:00,
2013-07-02 07:44:00,64.1,52.5,30.12,NE,50,0.0,0.0,66,0.00,OVC,OVC,0.00,WeatherDisplay:10.37,2013-07-02 12:44:00,
2013-07-02 07:49:00,64.6,53.0,30.12,NE,50,0.0,0.0,66,0.00,OVC,OVC,0.00,WeatherDisplay:10.37,2013-07-02 12:49:00,
2013-07-02 07:54:00,65.0,52.5,30.12,NE,48,1.2,1.2,64,0.00,OVC,OVC,0.00,WeatherDisplay:10.37,2013-07-02 12:54:00,
2013-07-02 08:00:00,65.5,52.6,30.12,NE,46,3.5,3.5,63,0.00,OVC,OVC,0.00,WeatherDisplay:10.37,2013-07-02 13:00:00,
2013-07-02 08:05:00,66.0,53.0,30.12,NE,45,1.0,1.0,63,0.00,OVC,OVC,0.00,WeatherDisplay:10.37,2013-07-02 13:05:00,
2013-07-02 08:10:00,66.5,53.1,30.12,NE,45,2.3,2.3,62,0.00,OVC,OVC,0.00,WeatherDisplay:10.37,2013-07-02 13:10:00,
2013-07-02 08:15:00,67.1,52.7,30.12,NE,44,3.5,3.5,60,0.00,OVC,OVC,0.00,WeatherDisplay:10.37,2013-07-02 13:15:00,
2013-07-02 08:21:00,67.6,53.2,30.12,NE,44,1.2,1.2,60,0.00,OVC,OVC,0.00,WeatherDisplay:10.37,2013-07-02 13:21:00,
2013-07-02 08:26:00,68.1,53.2,30.12,NE,43,0.0,0.0,59,0.00,OVC,OVC,0.00,WeatherDisplay:10.37,2013-07-02 13:26:00,
2013-07-02 08:31:00,68.7,52.8,30.12,NE,42,1.2,1.2,57,0.00,OVC,OVC,0.00,WeatherDisplay:10.37,2013-07-02 13:31:00,
2013-07-02 08:36:00,69.2,53.3,30.12,NE,42,1.0,0.0,57,0.00,OVC,OVC,0.00,WeatherDisplay:10.37,2013-07-02 13:36:00,
2013-07-02 08:41:00,69.8,52.9,30.12,NNE,21,2.3,2.3,55,0.00,OVC,OVC,0.00,WeatherDisplay:10.37,2013-07-02 13:41:00,
2013-07-02 08:47:00,70.3,53.4,30.12,NNE,17,2.0,2.0,55,0.00,OVC,OVC,0.00,WeatherDisplay:10.37,2013-07-02 13:47:00,
2013-07-02 08:52:00,70.9,52.9,30.12,NNE,17,2.3,2.3,53,0.00,OVC,OVC,0.00,WeatherDisplay:10.37,2013-07-02 13:52:00,
2013-07-02 08:57:00,71.3,52.2,30.12,NNE,16,2.3,2.3,51,0.00,OVC,OVC,0.00,WeatherDisplay:10.37,2013-07-02 13:57:00,
2013-07-02 09:02:00,71.8,52.7,30.12,NNE,16,3.5,3.5,51,0.00,OVC,OVC,0.00,WeatherDisplay:10.37,2013-07-02 14:02:00,
2013-07-02 09:07:00,72.2,52.5,30.12,NNE,16,2.3,2.3,50,0.00,OVC,OVC,0.00,WeatherDisplay:10.37,2013-07-02 14:07:00,
2013-07-02 09:12:00,72.6,51.8,30.12,NNE,28,4.6,4.6,48,0.00,OVC,OVC,0.00,WeatherDisplay:10.37,2013-07-02 14:12:00,
2013-07-02 09:17:00,73.1,52.2,30.11,NNE,26,2.3,2.3,48,0.00,OVC,OVC,0.00,WeatherDisplay:10.37,2013-07-02 14:17:00,
2013-07-02 09:23:00,73.5,52.0,30.11,NNE,29,3.0,3.0,47,0.00,OVC,OVC,0.00,WeatherDisplay:10.37,2013-07-02 14:23:00,
2013-07-02 09:28:00,74.0,51.9,30.11,NNE,30,3.5,3.5,46,0.00,OVC,OVC,0.00,WeatherDisplay:10.37,2013-07-02 14:28:00,
2013-07-02 09:33:00,74.5,52.4,30.11,North,9,2.3,2.3,46,0.00,OVC,OVC,0.00,WeatherDisplay:10.37,2013-07-02 14:33:00,
2013-07-02 09:38:00,74.9,52.7,30.11,NNE,13,2.3,2.3,46,0.00,OVC,OVC,0.00,WeatherDisplay:10.37,2013-07-02 14:38:00,
2013-07-02 09:44:00,75.5,52.1,30.11,NE,35,4.6,4.6,44,0.00,OVC,OVC,0.00,WeatherDisplay:10.37,2013-07-02 14:44:00,
2013-07-02 09:49:00,76.0,53.1,30.11,NE,34,1.2,1.2,45,0.00,OVC,OVC,0.00,WeatherDisplay:10.37,2013-07-02 14:49:00,
2013-07-02 09:54:00,76.7,52.5,30.10,NNE,21,4.6,4.6,43,0.00,OVC,OVC,0.00,WeatherDisplay:10.37,2013-07-02 14:54:00,
2013-07-02 10:00:00,77.1,52.9,30.10,NNE,21,2.3,2.3,43,0.00,OVC,OVC,0.00,WeatherDisplay:10.37,2013-07-02 15:00:00,
2013-07-02 10:05:00,77.4,53.1,30.10,NNW,341,2.3,2.3,43,0.00,OVC,OVC,0.00,WeatherDisplay:10.37,2013-07-02 15:05:00,
2013-07-02 10:10:00,77.8,52.2,30.10,NNW,340,5.8,5.8,41,0.00,OVC,OVC,0.00,WeatherDisplay:10.37,2013-07-02 15:10:00,
2013-07-02 10:15:00,77.6,52.0,30.10,NW,310,3.0,3.0,41,0.00,OVC,OVC,0.00,WeatherDisplay:10.37,2013-07-02 15:15:00,
2013-07-02 10:20:00,77.5,51.9,30.10,NNE,14,3.5,3.5,41,0.00,OVC,OVC,0.00,WeatherDisplay:10.37,2013-07-02 15:20:00,
2013-07-02 10:25:00,77.8,52.2,30.10,NNW,345,3.5,3.5,41,0.00,OVC,OVC,0.00,WeatherDisplay:10.37,2013-07-02 15:25:00,
2013-07-02 10:31:00,78.2,53.2,30.10,North,355,2.3,2.3,42,0.00,OVC,OVC,0.00,WeatherDisplay:10.37,2013-07-02 15:31:00,
2013-07-02 10:36:00,78.4,52.7,30.10,NW,320,3.5,3.5,41,0.00,OVC,OVC,0.00,WeatherDisplay:10.37,2013-07-02 15:36:00,
2013-07-02 10:41:00,79.1,53.4,30.10,NNE,23,4.6,4.6,41,0.00,OVC,OVC,0.00,WeatherDisplay:10.37,2013-07-02 15:41:00,
2013-07-02 10:46:00,79.2,52.8,30.10,NW,325,5.8,5.8,40,0.00,OVC,OVC,0.00,WeatherDisplay:10.37,2013-07-02 15:46:00,
2013-07-02 10:51:00,79.8,52.6,30.10,NNE,15,2.3,2.3,39,0.00,OVC,OVC,0.00,WeatherDisplay:10.37,2013-07-02 15:51:00,
2013-07-02 10:56:00,80.4,52.5,30.10,North,5,5.0,5.0,38,0.00,OVC,OVC,0.00,WeatherDisplay:10.37,2013-07-02 15:56:00,
2013-07-02 11:01:00,80.3,53.1,30.10,NNE,24,5.8,5.8,39,0.00,OVC,OVC,0.00,WeatherDisplay:10.37,2013-07-02 16:01:00,
2013-07-02 11:07:00,80.2,53.0,30.09,WNW,294,4.0,4.0,39,0.00,OVC,OVC,0.00,WeatherDisplay:10.37,2013-07-02 16:07:00,
2013-07-02 11:12:00,80.0,53.5,30.09,NW,310,3.5,3.5,40,0.00,OVC,OVC,0.00,WeatherDisplay:10.37,2013-07-02 16:12:00,
2013-07-02 11:17:00,80.3,54.5,30.09,NW,325,4.6,4.6,41,0.00,OVC,OVC,0.00,WeatherDisplay:10.37,2013-07-02 16:17:00,
2013-07-02 11:22:00,81.0,51.5,30.09,West,260,3.5,3.5,36,0.00,OVC,OVC,0.00,WeatherDisplay:10.37,2013-07-02 16:22:00,
2013-07-02 11:27:00,81.0,52.3,30.09,WNW,289,5.8,5.8,37,0.00,OVC,OVC,0.00,WeatherDisplay:10.37,2013-07-02 16:27:00,
2013-07-02 11:32:00,81.4,51.9,30.10,NW,325,4.6,4.6,36,0.00,OVC,OVC,0.00,WeatherDisplay:10.37,2013-07-02 16:32:00,
2013-07-02 11:37:00,81.9,52.3,30.09,WNW,300,3.5,3.5,36,0.00,OVC,OVC,0.00,WeatherDisplay:10.37,2013-07-02 16:37:00,
2013-07-02 11:43:00,82.4,51.2,30.09,WNW,289,5.8,5.8,34,0.00,OVC,OVC,0.00,WeatherDisplay:10.37,2013-07-02 16:43:00,
2013-07-02 11:48:00,82.7,53.0,30.09,NNE,26,6.9,6.9,36,0.00,OVC,OVC,0.00,WeatherDisplay:10.37,2013-07-02 16:48:00,
2013-07-02 11:53:00,83.0,51.7,30.09,NNE,22,3.5,3.5,34,0.00,OVC,OVC,0.00,WeatherDisplay:10.37,2013-07-02 16:53:00,
2013-07-02 11:59:00,83.1,51.8,30.09,NNW,347,4.0,4.0,34,0.00,OVC,OVC,0.00,WeatherDisplay:10.37,2013-07-02 16:59:00,
2013-07-02 12:04:00,82.8,51.6,30.09,NNW,343,5.8,5.8,34,0.00,OVC,OVC,0.00,WeatherDisplay:10.37,2013-07-02 17:04:00,
2013-07-02 12:09:00,82.8,52.3,30.08,NW,324,5.8,5.8,35,0.00,OVC,OVC,0.00,WeatherDisplay:10.37,2013-07-02 17:09:00,
2013-07-02 12:14:00,83.2,51.9,30.08,NNW,327,3.5,3.5,34,0.00,OVC,OVC,0.00,WeatherDisplay:10.37,2013-07-02 17:14:00,
2013-07-02 12:19:00,83.6,50.6,30.08,WNW,288,4.6,4.6,32,0.00,OVC,OVC,0.00,WeatherDisplay:10.37,2013-07-02 17:19:00,
2013-07-02 12:24:00,83.1,51.0,30.08,WNW,294,2.3,2.3,33,0.00,OVC,OVC,0.00,WeatherDisplay:10.37,2013-07-02 17:24:00,
2013-07-02 12:29:00,83.7,50.7,30.08,North,355,4.6,4.6,32,0.00,OVC,OVC,0.00,WeatherDisplay:10.37,2013-07-02 17:29:00,
2013-07-02 12:34:00,83.7,50.7,30.08,NNE,14,4.6,4.6,32,0.00,OVC,OVC,0.00,WeatherDisplay:10.37,2013-07-02 17:34:00,
2013-07-02 12:40:00,84.4,53.0,30.07,West,279,2.0,2.0,34,0.00,OVC,OVC,0.00,WeatherDisplay:10.37,2013-07-02 17:40:00,
2013-07-02 12:45:00,84.4,51.3,30.08,NNE,15,4.6,4.6,32,0.00,OVC,OVC,0.00,WeatherDisplay:10.37,2013-07-02 17:45:00,
2013-07-02 12:50:00,83.9,51.7,30.07,NNW,335,3.5,3.5,33,0.00,OVC,OVC,0.00,WeatherDisplay:10.37,2013-07-02 17:50:00,
2013-07-02 12:55:00,84.3,52.1,30.07,NNW,330,2.3,2.3,33,0.00,OVC,OVC,0.00,WeatherDisplay:10.37,2013-07-02 17:55:00,
2013-07-02 13:00:00,84.0,49.2,30.07,NNW,342,9.2,9.2,30,0.00,OVC,OVC,0.00,WeatherDisplay:10.37,2013-07-02 18:00:00,
2013-07-02 13:05:00,84.0,48.3,30.07,North,5,6.9,6.9,29,0.00,OVC,OVC,0.00,WeatherDisplay:10.37,2013-07-02 18:05:00,
2013-07-02 13:11:00,83.6,51.5,30.07,North,360,0.0,0.0,33,0.00,OVC,OVC,0.00,WeatherDisplay:10.37,2013-07-02 18:11:00,
2013-07-02 13:16:00,84.6,50.6,30.06,North,355,3.5,3.5,31,0.00,OVC,OVC,0.00,WeatherDisplay:10.37,2013-07-02 18:16:00,
2013-07-02 13:21:00,85.5,49.6,30.06,West,274,7.0,7.0,29,0.00,OVC,OVC,0.00,WeatherDisplay:10.37,2013-07-02 18:21:00,
2013-07-02 13:26:00,85.0,50.1,30.06,NNW,346,3.5,3.5,30,0.00,OVC,OVC,0.00,WeatherDisplay:10.37,2013-07-02 18:26:00,
2013-07-02 13:31:00,84.8,49.0,30.06,NNE,20,3.5,3.5,29,0.00,OVC,OVC,0.00,WeatherDisplay:10.37,2013-07-02 18:31:00,
2013-07-02 13:37:00,85.0,49.2,30.06,NNW,341,9.2,9.2,29,0.00,OVC,OVC,0.00,WeatherDisplay:10.37,2013-07-02 18:37:00,
2013-07-02 13:42:00,85.4,48.6,30.06,NE,40,3.5,3.5,28,0.00,OVC,OVC,0.00,WeatherDisplay:10.37,2013-07-02 18:42:00,
2013-07-02 13:47:00,85.6,48.8,30.05,North,5,5.0,5.0,28,0.00,OVC,OVC,0.00,WeatherDisplay:10.37,2013-07-02 18:47:00,
2013-07-02 13:52:00,85.8,48.9,30.06,NW,321,9.2,9.2,28,0.00,OVC,OVC,0.00,WeatherDisplay:10.37,2013-07-02 18:52:00,
2013-07-02 13:57:00,85.8,50.8,30.05,NNE,23,3.5,3.5,30,0.00,OVC,OVC,0.00,WeatherDisplay:10.37,2013-07-02 18:57:00,
2013-07-02 14:02:00,85.9,50.9,30.05,NNE,27,5.8,5.8,30,0.00,OVC,OVC,0.00,WeatherDisplay:10.37,2013-07-02 19:02:00,
2013-07-02 14:07:00,86.2,48.3,30.05,North,11,3.5,3.5,27,0.00,OVC,OVC,0.00,WeatherDisplay:10.37,2013-07-02 19:07:00,
2013-07-02 14:12:00,86.7,48.7,30.05,North,11,0.0,0.0,27,0.00,OVC,OVC,0.00,WeatherDisplay:10.37,2013-07-02 19:12:00,
2013-07-02 14:18:00,87.6,49.5,30.04,NNE,19,5.8,5.8,27,0.00,OVC,OVC,0.00,WeatherDisplay:10.37,2013-07-02 19:18:00,
2013-07-02 14:23:00,87.3,49.2,30.04,North,360,3.5,3.5,27,0.00,OVC,OVC,0.00,WeatherDisplay:10.37,2013-07-02 19:23:00,
2013-07-02 14:28:00,87.0,48.0,30.04,NE,42,3.5,3.5,26,0.00,OVC,OVC,0.00,WeatherDisplay:10.37,2013-07-02 19:28:00,
2013-07-02 14:33:00,87.1,51.9,30.04,North,9,3.5,3.5,30,0.00,OVC,OVC,0.00,WeatherDisplay:10.37,2013-07-02 19:33:00,
2013-07-02 14:38:00,87.8,49.7,30.04,WNW,292,0.0,0.0,27,0.00,OVC,OVC,0.00,WeatherDisplay:10.37,2013-07-02 19:38:00,
2013-07-02 14:44:00,89.2,47.7,30.03,NW,310,2.3,2.3,24,0.00,OVC,OVC,0.00,WeatherDisplay:10.37,2013-07-02 19:44:00,
2013-07-02 14:49:00,89.5,47.9,30.03,WNW,282,3.5,3.5,24,0.00,OVC,OVC,0.00,WeatherDisplay:10.37,2013-07-02 19:49:00,
2013-07-02 14:54:00,89.4,46.7,30.03,NW,304,5.8,5.8,23,0.00,OVC,OVC,0.00,WeatherDisplay:10.37,2013-07-02 19:54:00,
2013-07-02 14:59:00,88.7,48.4,30.03,NNE,21,5.8,5.8,25,0.00,OVC,OVC,0.00,WeatherDisplay:10.37,2013-07-02 19:59:00,
2013-07-02 15:05:00,87.5,48.4,30.03,NE,39,10.4,10.4,26,0.00,OVC,OVC,0.00,WeatherDisplay:10.37,2013-07-02 20:05:00,
2013-07-02 15:10:00,87.7,48.6,30.03,NNW,340,5.0,5.0,26,0.00,OVC,OVC,0.00,WeatherDisplay:10.37,2013-07-02 20:10:00,
2013-07-02 15:15:00,87.4,49.3,30.03,NW,319,5.0,5.0,27,0.00,OVC,OVC,0.00,WeatherDisplay:10.37,2013-07-02 20:15:00,
2013-07-02 15:21:00,87.6,49.5,30.03,NW,316,2.0,2.0,27,0.00,OVC,OVC,0.00,WeatherDisplay:10.37,2013-07-02 20:21:00,
2013-07-02 15:26:00,88.1,48.9,30.02,WNW,286,3.5,3.5,26,0.00,OVC,OVC,0.00,WeatherDisplay:10.37,2013-07-02 20:26:00,
2013-07-02 15:31:00,88.3,49.1,30.02,NNW,338,1.2,1.2,26,0.00,OVC,OVC,0.00,WeatherDisplay:10.37,2013-07-02 20:31:00,
2013-07-02 15:36:00,87.9,48.7,30.02,NNE,22,9.2,9.2,26,0.00,OVC,OVC,0.00,WeatherDisplay:10.37,2013-07-02 20:36:00,
2013-07-02 15:42:00,87.6,48.5,30.02,NNE,15,6.9,6.9,26,0.00,OVC,OVC,0.00,WeatherDisplay:10.37,2013-07-02 20:42:00,
2013-07-02 15:47:00,86.1,48.2,30.02,North,9,10.4,10.4,27,0.00,OVC,OVC,0.00,WeatherDisplay:10.37,2013-07-02 20:47:00,
2013-07-02 15:52:00,84.0,48.3,30.03,North,360,6.0,6.0,29,0.00,OVC,OVC,0.00,WeatherDisplay:10.37,2013-07-02 20:52:00,
2013-07-02 15:57:00,82.7,49.0,30.03,NNW,329,5.0,5.0,31,0.00,OVC,OVC,0.00,WeatherDisplay:10.37,2013-07-02 20:57:00,
2013-07-02 16:03:00,81.8,49.1,30.03,NNE,23,5.8,5.8,32,0.00,OVC,OVC,0.00,WeatherDisplay:10.37,2013-07-02 21:03:00,
2013-07-02 16:08:00,81.1,50.1,30.03,NNW,342,4.6,4.6,34,0.00,OVC,OVC,0.00,WeatherDisplay:10.37,2013-07-02 21:08:00,
2013-07-02 16:13:00,80.6,56.7,30.02,North,355,0.0,0.0,44,0.00,OVC,OVC,0.00,WeatherDisplay:10.37,2013-07-02 21:13:00,
2013-07-02 16:18:00,79.9,58.5,30.02,North,355,0.0,0.0,48,0.00,OVC,OVC,0.00,WeatherDisplay:10.37,2013-07-02 21:18:00,
2013-07-02 16:23:00,79.3,59.6,30.03,North,355,0.0,0.0,51,0.00,OVC,OVC,0.00,WeatherDisplay:10.37,2013-07-02 21:23:00,
2013-07-02 16:28:00,78.7,58.5,30.03,North,355,0.0,0.0,50,0.01,RA,RA,0.01,WeatherDisplay:10.37,2013-07-02 21:28:00,
2013-07-02 16:34:00,78.2,59.7,30.02,North,355,0.0,0.0,53,0.01,RA,RA,0.01,WeatherDisplay:10.37,2013-07-02 21:34:00,
2013-07-02 16:39:00,77.7,58.7,30.02,North,355,0.0,0.0,52,0.01,OVC,OVC,0.01,WeatherDisplay:10.37,2013-07-02 21:39:00,
2013-07-02 16:44:00,77.4,56.7,30.02,North,355,1.0,0.0,49,0.01,OVC,OVC,0.01,WeatherDisplay:10.37,2013-07-02 21:44:00,
2013-07-02 16:49:00,77.1,52.9,30.02,North,355,2.0,2.0,43,0.01,OVC,OVC,0.01,WeatherDisplay:10.37,2013-07-02 21:49:00,
2013-07-02 16:54:00,77.0,53.4,30.02,North,355,2.3,2.3,44,0.01,OVC,OVC,0.01,WeatherDisplay:10.37,2013-07-02 21:54:00,
2013-07-02 16:59:00,77.1,53.5,30.02,North,355,0.0,0.0,44,0.01,OVC,OVC,0.01,WeatherDisplay:10.37,2013-07-02 21:59:00,
2013-07-02 17:04:00,77.1,52.2,30.02,North,355,0.0,0.0,42,0.01,OVC,OVC,0.01,WeatherDisplay:10.37,2013-07-02 22:04:00,
2013-07-02 17:09:00,77.1,54.1,30.03,North,355,0.0,0.0,45,0.01,OVC,OVC,0.01,WeatherDisplay:10.37,2013-07-02 22:09:00,
2013-07-02 17:14:00,77.1,54.1,30.03,North,355,0.0,0.0,45,0.01,OVC,OVC,0.01,WeatherDisplay:10.37,2013-07-02 22:14:00,
2013-07-02 17:20:00,77.2,54.8,30.02,North,355,0.0,0.0,46,0.01,OVC,OVC,0.01,WeatherDisplay:10.37,2013-07-02 22:20:00,
2013-07-02 17:25:00,77.3,53.7,30.02,North,355,0.0,0.0,44,0.01,OVC,OVC,0.01,WeatherDisplay:10.37,2013-07-02 22:25:00,
2013-07-02 17:30:00,77.4,55.6,30.02,North,355,0.0,0.0,47,0.00,OVC,OVC,0.01,WeatherDisplay:10.37,2013-07-02 22:30:00,
2013-07-02 17:35:00,77.5,56.3,30.02,North,355,0.0,0.0,48,0.00,OVC,OVC,0.01,WeatherDisplay:10.37,2013-07-02 22:35:00,
2013-07-02 17:40:00,77.8,57.7,30.02,North,355,0.0,0.0,50,0.00,OVC,OVC,0.01,WeatherDisplay:10.37,2013-07-02 22:40:00,
2013-07-02 17:45:00,77.9,56.6,30.02,North,355,0.0,0.0,48,0.00,OVC,OVC,0.01,WeatherDisplay:10.37,2013-07-02 22:45:00,
2013-07-02 17:51:00,78.2,55.7,30.02,North,355,0.0,0.0,46,0.00,OVC,OVC,0.01,WeatherDisplay:10.37,2013-07-02 22:51:00,
2013-07-02 17:56:00,78.7,55.6,30.02,North,355,0.0,0.0,45,0.00,OVC,OVC,0.01,WeatherDisplay:10.37,2013-07-02 22:56:00,
2013-07-02 18:01:00,80.1,55.6,30.02,North,355,0.0,0.0,43,0.00,OVC,OVC,0.01,WeatherDisplay:10.37,2013-07-02 23:01:00,
2013-07-02 18:06:00,82.1,54.7,30.01,North,355,0.0,0.0,39,0.00,OVC,OVC,0.01,WeatherDisplay:10.37,2013-07-02 23:06:00,
2013-07-02 18:12:00,84.0,52.6,30.01,North,355,1.2,0.0,34,0.00,OVC,OVC,0.01,WeatherDisplay:10.37,2013-07-02 23:12:00,
2013-07-02 18:17:00,85.4,52.2,30.01,North,355,0.0,0.0,32,0.00,OVC,OVC,0.01,WeatherDisplay:10.37,2013-07-02 23:17:00,
2013-07-02 18:22:00,86.1,51.9,30.01,North,355,0.0,0.0,31,0.00,OVC,OVC,0.01,WeatherDisplay:10.37,2013-07-02 23:22:00,
2013-07-02 18:27:00,86.1,48.2,30.01,North,355,3.5,3.5,27,0.00,OVC,OVC,0.01,WeatherDisplay:10.37,2013-07-02 23:27:00,
2013-07-02 18:29:00,85.9,50.0,30.01,North,355,1.2,1.2,29,0.00,OVC,OVC,0.01,WeatherDisplay:10.37,2013-07-02 23:29:00,
2013-07-02 18:35:00,85.4,50.4,30.00,North,355,0.0,0.0,30,0.00,OVC,OVC,0.01,WeatherDisplay:10.37,2013-07-02 23:35:00,
2013-07-02 18:36:00,85.3,52.9,30.00,North,355,0.0,0.0,33,0.00,OVC,OVC,0.01,WeatherDisplay:10.37,2013-07-02 23:36:00,
2013-07-02 18:41:00,84.1,49.3,30.00,North,355,0.0,0.0,30,0.00,OVC,OVC,0.01,WeatherDisplay:10.37,2013-07-02 23:41:00,
2013-07-02 18:46:00,83.6,51.5,30.00,North,355,0.0,0.0,33,0.00,OVC,OVC,0.01,WeatherDisplay:10.37,2013-07-02 23:46:00,
2013-07-02 18:51:00,82.7,56.6,30.00,North,355,1.2,1.2,41,0.00,OVC,OVC,0.01,WeatherDisplay:10.37,2013-07-02 23:51:00,
2013-07-02 18:55:00,82.1,56.7,30.00,North,355,0.0,0.0,42,0.00,OVC,OVC,0.01,WeatherDisplay:10.37,2013-07-02 23:55:00,
2013-07-02 19:00:00,81.3,56.0,30.00,South,182,2.3,2.3,42,0.00,OVC,OVC,0.01,WeatherDisplay:10.37,2013-07-03 00:00:00,
2013-07-02 19:01:00,81.1,55.8,30.00,South,182,0.0,0.0,42,0.00,OVC,OVC,0.01,WeatherDisplay:10.37,2013-07-03 00:01:00,
2013-07-02 19:06:00,80.6,56.0,30.00,South,182,0.0,0.0,43,0.00,OVC,OVC,0.01,WeatherDisplay:10.37,2013-07-03 00:06:00,
2013-07-02 19:12:00,80.1,54.3,30.00,South,182,2.3,2.3,41,0.00,OVC,OVC,0.01,WeatherDisplay:10.37,2013-07-03 00:12:00,
2013-07-02 19:17:00,79.6,54.5,30.00,SSE,156,3.5,3.5,42,0.00,OVC,OVC,0.01,WeatherDisplay:10.37,2013-07-03 00:17:00,
2013-07-02 19:22:00,79.1,54.7,30.00,SSE,155,3.5,3.5,43,0.00,OVC,OVC,0.01,WeatherDisplay:10.37,2013-07-03 00:22:00,
2013-07-02 19:24:00,78.9,54.5,30.00,SSE,155,3.5,3.5,43,0.00,OVC,OVC,0.01,WeatherDisplay:10.37,2013-07-03 00:24:00,
2013-07-02 19:29:00,78.6,54.9,30.00,SSE,155,2.3,2.3,44,0.00,OVC,OVC,0.01,WeatherDisplay:10.37,2013-07-03 00:29:00,
2013-07-02 19:30:00,78.5,54.8,30.00,SSE,155,2.3,2.3,44,0.00,OVC,OVC,0.01,WeatherDisplay:10.37,2013-07-03 00:30:00,
2013-07-02 19:35:00,78.0,54.9,30.00,SSE,155,0.0,0.0,45,0.00,OVC,OVC,0.01,WeatherDisplay:10.37,2013-07-03 00:35:00,
2013-07-02 19:37:00,77.9,55.5,30.00,SSE,155,0.0,0.0,46,0.00,OVC,OVC,0.01,WeatherDisplay:10.37,2013-07-03 00:37:00,
2013-07-02 19:42:00,77.6,55.8,30.00,SSE,155,0.0,0.0,47,0.00,OVC,OVC,0.01,WeatherDisplay:10.37,2013-07-03 00:42:00,
2013-07-02 19:47:00,77.1,55.9,30.00,SSE,155,0.0,0.0,48,0.00,OVC,OVC,0.01,WeatherDisplay:10.37,2013-07-03 00:47:00,
2013-07-02 19:52:00,76.8,56.8,30.00,SSE,155,0.0,0.0,50,0.00,OVC,OVC,0.01,WeatherDisplay:10.37,2013-07-03 00:52:00,
2013-07-02 19:58:00,76.5,57.0,30.01,SSE,155,0.0,0.0,51,0.00,OVC,OVC,0.01,WeatherDisplay:10.37,2013-07-03 00:58:00,
2013-07-02 20:00:00,76.3,56.8,30.01,SSE,155,0.0,0.0,51,0.00,OVC,OVC,0.01,WeatherDisplay:10.37,2013-07-03 01:00:00,
2013-07-02 20:05:00,76.0,56.6,30.01,SSE,155,0.0,0.0,51,0.00,OVC,OVC,0.01,WeatherDisplay:10.37,2013-07-03 01:05:00,
2013-07-02 20:09:00,75.8,56.4,30.01,SSE,155,0.0,0.0,51,0.00,OVC,OVC,0.01,WeatherDisplay:10.37,2013-07-03 01:09:00,
2013-07-02 20:14:00,75.6,56.7,30.00,SSE,155,0.0,0.0,52,0.00,OVC,OVC,0.01,WeatherDisplay:10.37,2013-07-03 01:14:00,
2013-07-02 20:19:00,75.3,57.0,30.01,SSE,155,1.2,0.0,53,0.00,OVC,OVC,0.01,WeatherDisplay:10.37,2013-07-03 01:19:00,
2013-07-02 20:24:00,75.1,56.8,30.01,SSE,155,0.0,0.0,53,0.00,OVC,OVC,0.01,WeatherDisplay:10.37,2013-07-03 01:24:00,
2013-07-02 20:28:00,74.8,56.5,30.01,SSE,155,0.0,0.0,53,0.00,OVC,OVC,0.01,WeatherDisplay:10.37,2013-07-03 01:28:00,
2013-07-02 20:33:00,74.5,56.8,30.00,SSE,155,0.0,0.0,54,0.00,OVC,OVC,0.01,WeatherDisplay:10.37,2013-07-03 01:33:00,
2013-07-02 20:39:00,74.2,56.0,30.00,SSE,155,0.0,0.0,53,0.00,OVC,OVC,0.01,WeatherDisplay:10.37,2013-07-03 01:39:00,
2013-07-02 20:44:00,73.8,55.6,30.00,SSE,155,1.2,1.3,53,0.00,OVC,OVC,0.01,WeatherDisplay:10.37,2013-07-03 01:44:00,
2013-07-02 20:49:00,73.5,55.3,30.00,SSE,155,0.0,0.0,53,0.00,OVC,OVC,0.01,WeatherDisplay:10.37,2013-07-03 01:49:00,
2013-07-02 20:50:00,73.5,55.8,30.00,SSE,155,0.0,0.0,54,0.00,OVC,OVC,0.01,WeatherDisplay:10.37,2013-07-03 01:50:00,
2013-07-02 20:55:00,73.2,55.0,30.00,SSE,155,0.0,0.0,53,0.00,OVC,OVC,0.01,WeatherDisplay:10.37,2013-07-03 01:55:00,
2013-07-02 21:00:00,72.8,54.7,30.01,SSE,155,0.0,0.0,53,0.00,OVC,OVC,0.01,WeatherDisplay:10.37,2013-07-03 02:00:00,
2013-07-02 21:06:00,72.5,54.4,30.00,SSE,155,2.3,2.3,53,0.00,OVC,OVC,0.01,WeatherDisplay:10.37,2013-07-03 02:06:00,
2013-07-02 21:11:00,72.1,54.5,30.00,SSE,155,0.0,0.0,54,0.00,OVC,OVC,0.01,WeatherDisplay:10.37,2013-07-03 02:11:00,
2013-07-02 21:16:00,71.8,54.8,30.01,SSE,155,0.0,0.0,55,0.00,OVC,OVC,0.01,WeatherDisplay:10.37,2013-07-03 02:16:00,
2013-07-02 21:22:00,71.3,54.8,30.01,SSE,155,0.0,0.0,56,0.00,OVC,OVC,0.01,WeatherDisplay:10.37,2013-07-03 02:22:00,
2013-07-02 21:27:00,71.0,54.5,30.01,SSE,155,0.0,0.0,56,0.00,OVC,OVC,0.01,WeatherDisplay:10.37,2013-07-03 02:27:00,
2013-07-02 21:32:00,70.6,54.6,30.01,SSE,155,0.0,0.0,57,0.00,OVC,OVC,0.01,WeatherDisplay:10.37,2013-07-03 02:32:00,
2013-07-02 21:34:00,70.5,55.0,30.01,SSE,155,0.0,0.0,58,0.00,OVC,OVC,0.01,WeatherDisplay:10.37,2013-07-03 02:34:00,
2013-07-02 21:40:00,70.1,55.1,30.01,SSE,155,0.0,0.0,59,0.00,OVC,OVC,0.01,WeatherDisplay:10.37,2013-07-03 02:40:00,
2013-07-02 21:45:00,69.8,54.8,30.01,SSE,155,0.0,0.0,59,0.00,OVC,OVC,0.01,WeatherDisplay:10.37,2013-07-03 02:45:00,
2013-07-02 21:47:00,69.6,55.1,30.01,SSE,155,0.0,0.0,60,0.00,OVC,OVC,0.01,WeatherDisplay:10.37,2013-07-03 02:47:00,
2013-07-02 21:53:00,69.2,54.7,30.01,SSE,155,0.0,0.0,60,0.00,OVC,OVC,0.01,WeatherDisplay:10.37,2013-07-03 02:53:00,
2013-07-02 21:58:00,69.0,55.4,30.01,SSE,155,0.0,0.0,62,0.00,OVC,OVC,0.01,WeatherDisplay:10.37,2013-07-03 02:58:00,
2013-07-02 22:03:00,68.7,55.6,30.01,SSE,155,0.0,0.0,63,0.00,OVC,OVC,0.01,WeatherDisplay:10.37,2013-07-03 03:03:00,
2013-07-02 22:08:00,68.4,55.7,30.02,SSE,155,0.0,0.0,64,0.00,OVC,OVC,0.01,WeatherDisplay:10.37,2013-07-03 03:08:00,
2013-07-02 22:13:00,68.0,55.8,30.02,SSE,155,0.0,0.0,65,0.00,OVC,OVC,0.01,WeatherDisplay:10.37,2013-07-03 03:13:00,
2013-07-02 22:19:00,67.7,55.5,30.02,SSE,155,0.0,0.0,65,0.00,OVC,OVC,0.01,WeatherDisplay:10.37,2013-07-03 03:19:00,
2013-07-02 22:22:00,67.6,55.8,30.02,SSE,155,0.0,0.0,66,0.00,OVC,OVC,0.01,WeatherDisplay:10.37,2013-07-03 03:22:00,
2013-07-02 22:27:00,67.3,55.5,30.02,SSE,155,0.0,0.0,66,0.00,OVC,OVC,0.01,WeatherDisplay:10.37,2013-07-03 03:27:00,
2013-07-02 22:32:00,67.1,56.2,30.02,SSE,155,0.0,0.0,68,0.00,OVC,OVC,0.01,WeatherDisplay:10.37,2013-07-03 03:32:00,
2013-07-02 22:36:00,66.9,56.0,30.02,SSE,155,0.0,0.0,68,0.00,OVC,OVC,0.01,WeatherDisplay:10.37,2013-07-03 03:36:00,
2013-07-02 22:41:00,66.6,56.1,30.01,SSE,155,0.0,0.0,69,0.00,OVC,OVC,0.01,WeatherDisplay:10.37,2013-07-03 03:41:00,
2013-07-02 22:46:00,66.3,56.2,30.02,SSE,155,0.0,0.0,70,0.00,OVC,OVC,0.01,WeatherDisplay:10.37,2013-07-03 03:46:00,
2013-07-02 22:50:00,66.1,56.0,30.02,SSE,155,0.0,0.0,70,0.00,OVC,OVC,0.01,WeatherDisplay:10.37,2013-07-03 03:50:00,
2013-07-02 22:55:00,65.9,56.2,30.01,SSE,155,0.0,0.0,71,0.00,OVC,OVC,0.01,WeatherDisplay:10.37,2013-07-03 03:55:00,
2013-07-02 23:00:00,65.6,55.9,30.01,SSE,155,0.0,0.0,71,0.00,OVC,OVC,0.01,WeatherDisplay:10.37,2013-07-03 04:00:00,
2013-07-02 23:01:00,65.6,55.9,30.01,SSE,155,0.0,0.0,71,0.00,OVC,OVC,0.01,WeatherDisplay:10.37,2013-07-03 04:01:00,
2013-07-02 23:02:00,65.5,55.8,30.02,SSE,155,0.0,0.0,71,0.00,OVC,OVC,0.01,WeatherDisplay:10.37,2013-07-03 04:02:00,
2013-07-02 23:03:00,65.4,55.7,30.01,SSE,155,0.0,0.0,71,0.00,OVC,OVC,0.01,WeatherDisplay:10.37,2013-07-03 04:03:00,
2013-07-02 23:06:00,65.3,56.0,30.02,SSE,155,0.0,0.0,72,0.00,OVC,OVC,0.01,WeatherDisplay:10.37,2013-07-03 04:06:00,
2013-07-02 23:09:00,65.2,56.3,30.01,SSE,155,0.0,0.0,73,0.00,OVC,OVC,0.01,WeatherDisplay:10.37,2013-07-03 04:09:00,
2013-07-02 23:14:00,65.1,56.2,30.01,SSE,155,0.0,0.0,73,0.00,OVC,OVC,0.01,WeatherDisplay:10.37,2013-07-03 04:14:00,
2013-07-02 23:19:00,64.9,56.0,30.02,SSE,155,0.0,0.0,73,0.00,OVC,OVC,0.01,WeatherDisplay:10.37,2013-07-03 04:19:00,
2013-07-02 23:25:00,64.6,55.7,30.02,SSE,155,0.0,0.0,73,0.00,OVC,OVC,0.01,WeatherDisplay:10.37,2013-07-03 04:25:00,
2013-07-02 23:30:00,64.3,55.8,30.02,SSE,155,0.0,0.0,74,0.00,OVC,OVC,0.01,WeatherDisplay:10.37,2013-07-03 04:30:00,
2013-07-02 23:32:00,64.2,55.7,30.02,SSE,155,0.0,0.0,74,0.00,OVC,OVC,0.01,WeatherDisplay:10.37,2013-07-03 04:32:00,
2013-07-02 23:34:00,64.0,55.5,30.02,SSE,155,0.0,0.0,74,0.00,OVC,OVC,0.01,WeatherDisplay:10.37,2013-07-03 04:34:00,
2013-07-02 23:39:00,63.8,56.1,30.02,SSE,155,0.0,0.0,76,0.00,OVC,OVC,0.01,WeatherDisplay:10.37,2013-07-03 04:39:00,
2013-07-02 23:45:00,63.8,56.1,30.01,SSE,155,0.0,0.0,76,0.00,OVC,OVC,0.01,WeatherDisplay:10.37,2013-07-03 04:45:00,
2013-07-02 23:46:00,63.8,56.4,30.01,SSE,155,0.0,0.0,77,0.00,OVC,OVC,0.01,WeatherDisplay:10.37,2013-07-03 04:46:00,
2013-07-02 23:51:00,63.6,56.3,30.01,SSE,155,0.0,0.0,77,0.00,OVC,OVC,0.01,WeatherDisplay:10.37,2013-07-03 04:51:00,
2013-07-02 23:53:00,63.6,56.3,30.01,SSE,155,0.0,0.0,77,0.00,OVC,OVC,0.01,WeatherDisplay:10.37,2013-07-03 04:53:00,
2013-07-02 23:58:00,63.3,56.0,30.02,SSE,155,0.0,0.0,77,0.00,OVC,OVC,0.01,WeatherDisplay:10.37,2013-07-03 04:58:00,